Location: Newark
(43.0000°N, 1.6781°W)
Time: 04:36:12
(UTC+00:00)

Explorer 7 - Pass Details

Date: 23 April 2021
Orbit: 484 x 677 km, 50.3° (Epoch: 07 May)

Event Time Altitude Azimuth Distance (km) Brightness Sun altitude
Rises 20:45:41 0° 276° (W) 2,645 11.3 -18.0°
Reaches altitude 10° 20:48:01 10° 286° (WNW) 1,788 10.5 -18.3°
Maximum altitude 20:51:42 32° 351° (N) 963 8.5 -18.8°
Drops below altitude 10° 20:55:37 10° 56° (NE) 1,898 9.4 -19.4°
Enters shadow 20:55:52 - 57° (ENE) 1,988 9.5 -19.4°
Sets 20:58:09 0° 66° (ENE) 2,838 - -19.7°
